Tillbaka till svenska Fidonet
English   Information   Debug  
FILM   0/18
FNEWS_PUBLISH   5034
FN_SYSOP   42247
FN_SYSOP_OLD1   71952
FTP_FIDO   0/2
FTSC_PUBLIC   0/13979
FUNNY   0/4886
GENEALOGY.EUR   0/71
GET_INFO   105
GOLDED   0/408
HAM   45/16786
HOLYSMOKE   0/6791
HOT_SITES   0/1
HTMLEDIT   0/71
HUB203   466
HUB_100   264
HUB_400   39
HUMOR   0/29
IC   0/2851
INTERNET   0/424
INTERUSER   0/3
IP_CONNECT   719
JAMNNTPD   0/233
JAMTLAND   0/47
KATTY_KORNER   0/41
LAN   0/16
LINUX-USER   0/19
LINUXHELP   0/1155
LINUX   0/22427
LINUX_BBS   0/957
mail   18.68
mail_fore_ok   249
MENSA   0/341
MODERATOR   0/102
MONTE   0/992
MOSCOW_OKLAHOMA   0/1245
MUFFIN   0/783
MUSIC   0/321
N203_STAT   938
N203_SYSCHAT   313
NET203   321
NET204   69
NET_DEV   0/10
NORD.ADMIN   0/101
NORD.CHAT   0/2572
NORD.FIDONET   189
NORD.HARDWARE   0/28
NORD.KULTUR   0/114
NORD.PROG   0/32
NORD.SOFTWARE   0/88
NORD.TEKNIK   0/58
NORD   0/453
OCCULT_CHAT   0/93
OS2BBS   0/787
OS2DOSBBS   0/580
OS2HW   0/42
OS2INET   0/37
OS2LAN   0/134
OS2PROG   0/36
OS2REXX   0/113
OS2USER-L   207
OS2   0/4835
OSDEBATE   0/18996
PASCAL   0/490
PERL   0/457
PHP   0/45
POINTS   0/405
POLITICS   0/29554
POL_INC   0/14731
PSION   103
R20_ADMIN   1133
R20_AMATORRADIO   0/2
R20_BEST_OF_FIDONET   16
R20_CHAT   0/897
R20_DEPP   0/3
R20_DEV   400
R20_ECHO2   1934
R20_ECHOPRES   0/35
R20_ESTAT   0/719
R20_FIDONETPROG...
...RAM.MYPOINT
  0/2
R20_FIDONETPROGRAM   0/22
R20_FIDONET   0/248
R20_FILEFIND   0/24
R20_FILEFOUND   0/22
R20_HIFI   0/3
R20_INFO2   3827
R20_INTERNET   0/12940
R20_INTRESSE   0/60
R20_INTR_KOM   0/99
R20_KANDIDAT.CHAT   42
R20_KANDIDAT   28
R20_KOM_DEV   112
R20_KONTROLL   0/13360
R20_KORSET   0/18
R20_LOKALTRAFIK   0/24
R20_MODERATOR   0/1852
R20_NC   76
R20_NET200   245
R20_NETWORK.OTH...
...ERNETS
  0/13
R20_OPERATIVSYS...
...TEM.LINUX
  0/44
R20_PROGRAMVAROR   0/1
R20_REC2NEC   534
R20_SFOSM   0/341
R20_SF   0/108
R20_SPRAK.ENGLISH   0/1
R20_SQUISH   107
R20_TEST   2
R20_WORST_OF_FIDONET   20
RAR   0/9
RA_MULTI   106
RA_UTIL   0/162
REGCON.EUR   0/2072
REGCON   0/13
SCIENCE   0/1206
SF   0/239
SHAREWARE_SUPPORT   0/5146
SHAREWRE   0/14
SIMPSONS   0/169
STATS_OLD1   0/2539.065
STATS_OLD2   0/2530
STATS_OLD3   0/2395.095
STATS_OLD4   0/1692.25
SURVIVOR   0/495
SYSOPS_CORNER   0/3
SYSOP   0/84
TAGLINES   0/112
TEAMOS2   0/4530
TECH   0/2617
TEST.444   0/105
TRAPDOOR   0/19
TREK   0/755
TUB   0/290
UFO   0/40
UNIX   0/1316
USA_EURLINK   0/102
USR_MODEMS   0/1
VATICAN   0/2740
VIETNAM_VETS   0/14
VIRUS   0/378
VIRUS_INFO   0/201
VISUAL_BASIC   0/473
WHITEHOUSE   0/5187
WIN2000   0/101
WIN32   0/30
WIN95   0/4291
WIN95_OLD1   0/70272
WINDOWS   0/1517
WWB_SYSOP   0/419
WWB_TECH   0/810
ZCC-PUBLIC   0/1
ZEC   4

 
4DOS   0/134
ABORTION   0/7
ALASKA_CHAT   0/506
ALLFIX_FILE   0/1313
ALLFIX_FILE_OLD1   0/7997
ALT_DOS   0/152
AMATEUR_RADIO   0/1039
AMIGASALE   0/14
AMIGA   0/331
AMIGA_INT   0/1
AMIGA_PROG   0/20
AMIGA_SYSOP   0/26
ANIME   0/15
ARGUS   0/924
ASCII_ART   0/340
ASIAN_LINK   0/651
ASTRONOMY   0/417
AUDIO   0/92
AUTOMOBILE_RACING   0/105
BABYLON5   0/17862
BAG   135
BATPOWER   0/361
BBBS.ENGLISH   0/382
BBSLAW   0/109
BBS_ADS   0/5290
BBS_INTERNET   0/507
BIBLE   0/3563
BINKD   0/1119
BINKLEY   0/215
BLUEWAVE   0/2173
CABLE_MODEMS   0/25
CBM   0/46
CDRECORD   0/66
CDROM   0/20
CLASSIC_COMPUTER   0/378
COMICS   0/15
CONSPRCY   0/899
COOKING   42383
COOKING_OLD1   0/24719
COOKING_OLD2   32120/40862
COOKING_OLD3   0/37489
COOKING_OLD4   0/35496
COOKING_OLD5   9370
C_ECHO   0/189
C_PLUSPLUS   0/31
DIRTY_DOZEN   0/201
DOORGAMES   0/2388
DOS_INTERNET   0/196
duplikat   6102
ECHOLIST   0/18295
EC_SUPPORT   0/318
ELECTRONICS   0/359
ELEKTRONIK.GER   1534
ENET.LINGUISTIC   0/13
ENET.POLITICS   0/4
ENET.SOFT   0/11701
ENET.SYSOP   34411
ENET.TALKS   0/32
ENGLISH_TUTOR   0/2000
EVOLUTION   0/1335
FDECHO   0/217
FDN_ANNOUNCE   0/7068
FIDONEWS   25226
FIDONEWS_OLD1   0/49742
FIDONEWS_OLD2   0/35949
FIDONEWS_OLD3   0/30874
FIDONEWS_OLD4   0/37224
FIDO_SYSOP   12977
FIDO_UTIL   0/180
FILEFIND   0/209
FILEGATE   0/212
Möte HAM, 16786 texter
 lista första sista föregående nästa
Text 79, 735 rader
Skriven 2004-11-05 07:01:07 av Amsat List (1:323/120.0)
Ärende: 
========
SB KEPS @ AMSAT  $ORB04309.O
Orbital Elements  04309.OSCAR

HR AMSAT ORBITAL ELEMENTS FOR OSCAR SATELLITES
FROM WA5QGD FORT WORTH,TX November 4, 2004
SEND SUBSCRIBE/UNSUBSCRIBE TO majordomo@amsat.org ONLY
BID: ORB04309.O
TO ALL RADIO AMATEURS BT

Satellite: AO-07
Catalog number: 07530
Epoch time:      04309.17763915
Element set:     342
Inclination:      101.6650 deg
RA of node:       353.6339 deg
Eccentricity:    0.0012067
Arg of perigee:   311.2752 deg
Mean anomaly:      48.7281 deg
Mean motion:   12.53569259 rev/day
Decay rate:       -2.9e-07 rev/day^2
Epoch rev:           37145
Checksum:              294

Satellite: AO-10
Catalog number: 14129
Epoch time:      04306.55283818
Element set:    0118
Inclination:      026.7537 deg
RA of node:       063.7509 deg
Eccentricity:    0.6032723
Arg of perigee:   137.1310 deg
Mean anomaly:     290.2554 deg
Mean motion:   02.05867859 rev/day
Decay rate:        1.1e-07 rev/day^2
Epoch rev:           16084
Checksum:              289

Satellite: UO-11
Catalog number: 14781
Epoch time:      04309.41958227
Element set:     626
Inclination:       98.1892 deg
RA of node:       296.6737 deg
Eccentricity:    0.0009218
Arg of perigee:     9.3271 deg
Mean anomaly:     350.8110 deg
Mean motion:   14.79048683 rev/day
Decay rate:       9.41e-06 rev/day^2
Epoch rev:           10857
Checksum:              323

Satellite: RS-10/11
Catalog number: 18129
Epoch time:      04308.80215563
Element set:     531
Inclination:       82.9271 deg
RA of node:        44.8484 deg
Eccentricity:    0.0010573
Arg of perigee:   299.9672 deg
Mean anomaly:      60.0431 deg
Mean motion:   13.72747065 rev/day
Decay rate:        4.0e-07 rev/day^2
Epoch rev:           87015
Checksum:              291

Satellite: FO-20
Catalog number: 20480
Epoch time:      04308.61647603
Element set:     732
Inclination:       99.0278 deg
RA of node:       159.7126 deg
Eccentricity:    0.0540773
Arg of perigee:    30.9729 deg
Mean anomaly:     332.2115 deg
Mean motion:   12.83343072 rev/day
Decay rate:        4.0e-08 rev/day^2
Epoch rev:           69056
Checksum:              290

Satellite: RS-12/13
Catalog number: 21089
Epoch time:      04309.88025013
Element set:     754
Inclination:       82.9195 deg
RA of node:        77.3535 deg
Eccentricity:    0.0029493
Arg of perigee:   347.8416 deg
Mean anomaly:      12.2022 deg
Mean motion:   13.74442481 rev/day
Decay rate:        2.5e-07 rev/day^2
Epoch rev:           68968
Checksum:              312

Satellite: RS-15
Catalog number: 23439
Epoch time:      04308.86156580
Element set:    0824
Inclination:      064.8125 deg
RA of node:       111.9515 deg
Eccentricity:    0.0157146
Arg of perigee:   356.2101 deg
Mean anomaly:     003.7620 deg
Mean motion:   11.27550428 rev/day
Decay rate:       -3.9e-07 rev/day^2
Epoch rev:           40598
Checksum:              289

Satellite: FO-29
Catalog number: 24278
Epoch time:      04309.24102120
Element set:     819
Inclination:       98.5795 deg
RA of node:        22.8259 deg
Eccentricity:    0.0351481
Arg of perigee:    39.0500 deg
Mean anomaly:     323.5456 deg
Mean motion:   13.52904146 rev/day
Decay rate:       -1.5e-07 rev/day^2
Epoch rev:           40577
Checksum:              294

Satellite: SO-33
Catalog number: 25509
Epoch time:      04308.93216751
Element set:     228
Inclination:       31.4317 deg
RA of node:       225.7453 deg
Eccentricity:    0.0355763
Arg of perigee:   357.2674 deg
Mean anomaly:       2.6006 deg
Mean motion:   14.27893958 rev/day
Decay rate:       7.33e-06 rev/day^2
Epoch rev:           31460
Checksum:              305

Satellite: AO-40
Catalog number: 26609
Epoch time:      04306.40356977
Element set:     454
Inclination:        9.4693 deg
RA of node:       336.4516 deg
Eccentricity:    0.7961042
Arg of perigee:   334.5800 deg
Mean anomaly:       1.8362 deg
Mean motion:    1.25585198 rev/day
Decay rate:       -9.7e-07 rev/day^2
Epoch rev:            1839
Checksum:              318

/EX
SB KEPS @ AMSAT  $ORB04309.D
Orbital Elements  04309.MICROS

HR AMSAT ORBITAL ELEMENTS FOR THE MICROSATS
FROM WA5QGD FORT WORTH,TX November 4, 2004
SEND SUBSCRIBE/UNSUBSCRIBE TO majordomo@amsat.org ONLY
BID: ORB04309.D
TO ALL RADIO AMATEURS BT

Satellite: UO-14
Catalog number: 20437
Epoch time:      04309.59798944
Element set:     630
Inclination:       98.2076 deg
RA of node:       325.8171 deg
Eccentricity:    0.0010463
Arg of perigee:   137.4198 deg
Mean anomaly:     222.7822 deg
Mean motion:   14.31378166 rev/day
Decay rate:        4.3e-07 rev/day^2
Epoch rev:           77190
Checksum:              314

Satellite: AO-16
Catalog number: 20439
Epoch time:      04309.64361409
Element set:     319
Inclination:       98.2321 deg
RA of node:       340.6707 deg
Eccentricity:    0.0011194
Arg of perigee:   145.8272 deg
Mean anomaly:     214.3646 deg
Mean motion:   14.31637942 rev/day
Decay rate:        9.9e-07 rev/day^2
Epoch rev:           77196
Checksum:              309

Satellite: WO-18
Catalog number: 20441
Epoch time:      04309.59007304
Element set:     509
Inclination:       98.2460 deg
RA of node:       344.7390 deg
Eccentricity:    0.0012123
Arg of perigee:   146.5718 deg
Mean anomaly:     213.6235 deg
Mean motion:   14.31712669 rev/day
Decay rate:        8.3e-07 rev/day^2
Epoch rev:           77201
Checksum:              279

Satellite: LO-19
Catalog number: 20442
Epoch time:      04308.65674215
Element set:    0247
Inclination:      098.2573 deg
RA of node:       348.0027 deg
Eccentricity:    0.0012071
Arg of perigee:   148.9960 deg
Mean anomaly:     211.1936 deg
Mean motion:   14.31884615 rev/day
Decay rate:       1.06e-06 rev/day^2
Epoch rev:           77194
Checksum:              301

